Dewpoint
9 9 9 9 9 9 10 9 4 -1 -4 -7 -13 -17 -21 -22 -23 -24 -22 -9 -3 -2 -5 -7 -0 -1 -2 -2 -2 -5 -3 -1 -3 -4 -2 -5 -6 -6 -5 -1 2 7 9 11 12
9 9 9 9 9 9 9 9 10 10 8 2 -5 -8 -14 -19 -22 -24 -24 -17 -7 -6 -6 -7 -3 -2 -1 -2 -3 -4 -2 -2 -4 -5 -5 -5 -5 -5 -5 -4 10 10 9 12 12
5 6 8 8 9 9 9 9 9 9 9 9 7 -0 -6 -12 -18 -3 -6 -7 -8 -10 -10 -11 -4 -3 -4 -4 -4 -4 -2 -3 -4 -5 -7 -5 -5 -6 -5 -4 -2 11 12 11 12
-3 -1 1 3 6 8 8 8 8 8 8 9 9 8 5 -6 -5 -8 -9 -10 -9 -13 -16 -14 -4 -3 -4 -3 -4 -4 -5 -5 -5 -5 -6 -5 -5 -5 -6 -6 -6 3 9 12 13
-11 -11 -10 -9 -7 -4 1 4 7 8 8 8 8 8 8 2 -6 -10 -8 -8 -5 -3 -6 -7 -4 -4 -2 -3 -4 -4 -5 -6 -6 -6 -6 -5 -5 -5 -6 -5 -5 -0 9 11 12
-15 -18 -19 -20 -20 -21 -20 -16 -9 -2 4 7 7 7 8 4 2 -7 -7 -8 -7 -4 -2 -3 -3 -4 -5 -4 -2 -3 -3 -4 -5 -5 -5 -5 -5 -5 -6 -6 -6 1 7 9 10
-12 -13 -15 -16 -18 -18 -21 -24 -23 -25 -16 -2 6 7 8 7 3 -7 -7 -6 -11 -4 -2 -2 -1 -0 -3 -2 -2 -2 -1 -3 -4 -5 -5 -6 -4 -4 -5 -6 -7 -6 1 7 8
-13 -13 -13 -14 -16 -15 -15 -16 -18 -19 -24 -25 -3 7 8 5 3 5 -4 -7 -10 -9 -3 -2 -1 -1 -1 -2 -2 -1 -2 0 -3 -5 -6 -5 -3 -5 -6 -6 -6 -6 -7 -3 2
-5 -7 -10 -13 -16 -19 -22 -22 -9 -13 -17 -17 -4 7 7 2 3 3 4 1 0 -5 -8 -7 -4 -1 -0 -0 1 -1 0 -1 -2 -4 -5 -5 -4 -6 -7 -6 -6 -6 -6 -5 -4
-1 -1 -4 -5 -6 -9 -12 -14 1 2 -5 -10 5 4 -4 -3 2 3 2 3 0 -6 -8 -8 -5 0 0 0 3 1 -1 -2 -2 -4 -4 -5 -5 -7 -6 -6 -5 -6 -6 -6 -4
-1 -1 -2 -3 -3 -4 -7 -4 3 7 5 0 1 -2 -5 3 3 1 -2 1 -0 -2 -6 -6 -3 0 -1 -0 -1 -2 -2 -2 -4 -6 -5 -4 -5 -6 -6 -5 -5 -6 -5 -6 -6
-1 -1 -2 -2 -3 -3 -0 3 4 1 2 -7 -12 -1 0 2 5 3 -1 -1 -2 -1 -4 -6 -3 -4 -3 -3 -3 -2 -2 -3 -5 -6 -5 -4 -5 -7 -5 -5 -5 -5 -5 -6 -6
-1 -0 -1 -2 -3 -4 1 1 2 1 1 -4 -8 -4 -6 -6 5 4 1 -2 -1 -1 -3 -5 -7 -7 -5 -3 -3 -4 -4 -3 -3 -4 -4 -4 -3 -4 -6 -7 -6 -6 -6 -6 -5
-3 -2 -2 -2 -3 1 1 1 0 -1 4 1 -7 -6 -2 -0 2 3 1 1 -3 -1 -1 -3 -7 -8 -7 -4 -5 -3 -5 -5 -5 -4 -2 -5 -0 -4 -5 -6 -7 -7 -6 -7 -7
-2 -3 -3 -1 3 3 1 0 -0 4 -2 -6 -8 -3 -1 -0 0 1 1 3 2 -2 -3 -1 -3 -4 -6 -8 -7 -5 -6 -5 -5 -4 -4 -4 -1 -4 -4 -4 -6 -7 -7 -7 -7
-3 -2 -3 -2 -0 2 1 1 2 3 2 -6 -6 -2 -0 -1 1 1 2 2 3 1 -0 -0 -2 -2 -4 -5 -6 -9 -8 -7 -6 -4 -1 -3 -3 -3 -4 -4 -6 -8 -9 -9 -8
-2 -3 -3 -2 -2 1 2 2 3 3 -2 -9 -4 -3 -1 1 1 1 1 4 5 6 5 2 1 -2 -2 -0 -3 -3 -3 -0 -0 -1 -0 -3 -2 -3 -5 -6 -6 -7 -8 -9 -8
-2 -2 -3 -4 -0 3 3 4 3 -0 -2 -8 -9 -10 -8 -3 -1 -1 1 2 2 4 4 5 5 1 -2 -1 -1 -0 1 4 7 9 2 -3 -1 -3 -6 -6 -7 -7 -8 -8 -8
-1 -2 -2 -4 -2 3 4 4 3 0 -4 -5 -7 -9 -10 -10 -11 -5 -2 -1 -1 3 6 5 4 -1 -1 -3 -2 -0 1 -1 2 2 5 3 0 -1 -3 -5 -6 -7 -6 -7 -8
-1 -1 -2 -3 -3 2 3 2 1 -3 -3 -4 -3 -6 -6 -8 -9 -9 -10 -9 -2 -2 1 3 5 1 0 -0 0 -1 -3 2 2 7 9 8 6 4 -0 -2 -2 -3 -5 -7 -7
-0 1 -1 -3 1 2 2 2 -0 -2 -2 -2 -3 -2 -2 -3 -5 -6 -8 -10 -9 -3 -2 1 5 3 2 3 4 3 1 0 2 6 9 10 6 1 0 -1 -1 -2 -2 -1 -2
-0 2 -0 -0 3 2 1 0 -1 -2 -3 -3 -2 -2 -2 -3 -3 -4 -5 -6 -9 -9 -6 3 5 7 5 2 1 2 3 3 6 9 7 7 6 -1 -0 -1 -1 -0 -1 -3 -3
-0 -0 -1 2 2 2 1 0 -1 -1 -2 -1 -1 -3 -3 -2 -1 -3 -4 -6 -7 -7 -5 1 6 6 3 1 3 5 5 5 5 5 9 10 8 0 -0 -0 -1 -1 -2 -0 0
1 1 0 1 2 1 1 1 2 -1 -1 -1 0 -0 1 0 -1 -1 -2 -3 -5 -7 -6 -0 3 3 5 3 3 5 5 2 4 8 9 9 8 6 2 1 0 0 -0 -1 -1
-0 0 0 1 0 1 1 -1 -0 1 -1 -1 -0 -1 0 1 0 -0 -1 -1 -3 -4 -4 -3 1 -1 -0 2 3 1 1 2 2 4 7 6 7 5 3 0 -1 -1 -2 -2 -1
0 -0 0 -0 -0 -0 -0 1 1 1 -1 -1 1 -0 -1 0 -0 1 -1 -1 -1 -3 -1 1 2 2 2 1 1 2 2 3 3 2 2 2 4 4 4 2 -0 -1 -1 -1 -2
-1 -1 0 -1 -1 0 0 -0 -1 -1 -1 -1 -1 -1 -1 -1 -2 -2 -3 -2 -1 0 0 2 3 3 3 0 2 4 3 -0 -1 -3 -0 3 1 -1 1 1 -0 0 -1 -2 -2
Wind_Speed
12 12 13 12 14 13 13 13 14 13 13 13 12 13 15 17 16 13 13 10 11 11 8 7 4 4 9 14 13 15 2 5 6 7 5 10 4 3 3 6 10 8 19 30 29
15 12 13 15 13 15 13 14 14 14 13 14 14 12 14 16 18 16 12 13 13 14 15 11 6 13 18 15 14 5 3 6 8 6 5 7 5 5 2 3 17 23 26 34 30
15 15 15 15 16 15 15 16 14 16 15 14 14 13 12 14 16 5 5 7 12 14 15 13 13 13 14 17 22 12 8 7 16 11 9 8 3 2 1 2 10 32 36 34 35
12 12 14 17 18 17 17 15 17 16 17 15 13 13 10 10 2 6 11 9 10 9 11 13 9 9 5 6 17 6 17 18 23 19 6 6 13 12 9 13 13 17 27 37 36
10 10 12 13 14 16 16 18 17 16 16 16 15 15 11 7 19 11 13 12 5 4 3 7 11 15 8 9 16 7 9 18 17 19 11 6 7 9 19 16 13 4 29 34 33
8 9 10 11 12 12 13 14 16 18 18 15 13 13 13 9 11 4 12 16 6 4 11 8 11 16 21 17 6 17 20 18 14 15 16 6 7 11 18 16 20 8 28 31 32
6 6 7 8 9 10 11 12 13 14 15 16 13 13 20 31 10 10 11 14 13 8 11 10 9 11 12 8 13 20 12 13 11 15 9 19 9 8 22 19 22 23 20 30 31
5 5 6 5 4 4 5 7 10 13 12 11 12 13 16 8 11 28 21 19 12 16 15 11 8 14 6 10 11 5 6 6 7 11 17 14 12 13 22 22 29 28 29 25 28
6 5 6 5 5 4 5 6 8 9 9 7 8 10 15 7 17 26 25 23 18 20 13 14 9 10 7 3 5 3 4 9 12 11 9 10 15 16 31 29 27 31 35 32 29
6 6 5 6 5 6 5 6 7 7 5 4 9 4 18 11 10 14 13 18 18 12 16 15 7 4 2 6 9 6 7 8 13 11 16 15 17 14 27 26 21 20 29 24 29
7 7 7 6 6 6 6 4 5 3 5 9 7 16 10 1 9 7 5 15 16 16 7 15 5 14 20 16 12 11 10 13 12 10 9 17 17 11 24 26 22 23 19 21 24
9 8 8 7 6 4 3 5 5 8 11 21 25 30 30 21 8 9 8 9 16 12 7 8 19 21 15 7 15 16 19 23 18 14 15 20 16 11 10 12 29 28 26 29 29
11 10 9 8 6 5 2 4 9 11 7 12 26 23 30 25 13 17 7 9 9 14 16 15 21 17 15 15 18 20 19 19 19 13 16 19 19 13 13 14 19 25 24 26 32
12 12 10 6 3 3 3 5 5 8 4 7 7 6 14 10 6 22 25 13 7 10 14 10 21 19 17 20 19 21 16 19 19 14 13 5 15 23 6 11 10 20 27 33 35
13 12 11 9 5 6 2 1 6 3 5 2 8 6 9 15 9 2 27 18 9 5 4 9 15 23 24 25 19 20 18 19 18 16 12 15 8 25 7 13 9 13 32 37 42
13 12 12 13 13 9 5 1 2 4 7 4 8 8 9 15 5 4 4 20 9 7 12 19 24 13 12 19 18 17 21 19 15 15 16 23 13 25 18 15 9 20 29 32 35
14 14 16 15 15 7 3 0 1 3 9 4 7 9 9 8 7 7 5 7 5 3 11 14 21 19 21 23 20 18 14 13 12 15 17 18 11 24 5 18 22 21 33 40 37
13 14 18 22 15 6 6 1 7 6 8 15 9 10 4 6 10 9 9 7 10 10 4 6 7 17 14 13 14 16 12 10 19 11 19 14 18 21 16 20 30 38 38 43 40
12 14 19 23 20 12 7 7 4 7 6 10 12 5 5 7 5 4 8 9 11 12 8 4 14 16 21 15 20 23 14 22 17 13 13 19 27 29 19 23 29 33 29 37 43
11 12 23 18 20 18 7 10 5 11 15 12 6 5 8 10 10 9 4 4 3 7 15 11 16 20 22 20 23 16 17 13 13 16 19 11 16 15 31 16 12 12 17 29 41
10 5 7 20 18 13 9 6 10 25 23 6 6 10 16 14 15 13 9 17 7 5 7 8 4 21 4 8 19 17 13 15 15 5 9 8 11 23 31 21 22 24 25 30 27
7 3 2 13 13 5 11 5 12 14 21 12 13 18 17 15 16 16 19 15 29 17 11 4 2 7 17 20 16 17 20 19 10 13 6 12 15 14 10 17 14 19 29 45 48
5 7 8 17 7 10 2 11 23 19 18 7 10 10 12 15 14 13 20 28 28 18 6 2 2 5 16 7 3 5 12 18 21 10 15 7 7 21 22 25 35 23 34 23 25
3 2 9 14 17 11 14 15 13 14 22 24 16 18 18 20 18 14 20 11 27 26 22 4 5 10 11 15 14 16 18 18 15 9 9 14 19 29 27 20 20 24 31 26 33
8 3 4 2 9 13 13 11 16 15 21 15 14 22 21 22 21 19 18 19 21 23 10 2 8 10 13 18 17 17 19 20 19 23 19 20 19 26 29 22 23 35 46 34 32
6 4 6 11 12 9 19 19 24 19 17 18 21 21 20 25 15 19 16 16 14 15 8 4 6 7 18 18 18 20 16 14 18 22 20 24 19 20 38 33 30 33 42 29 23
18 22 8 9 12 11 13 16 18 21 24 35 23 19 20 17 24 31 30 28 17 12 13 4 3 1 15 15 16 15 18 16 14 19 14 15 19 19 27 19 25 32 29 39 40
Wind_Direction
259 261 267 270 279 277 276 277 278 288 299 299 307 307 310 310 307 293 279 265 269 282 284 281 269 280 280 263 276 278 29 295 274 350 314 91 73 185 31 11 96 91 154 160 155
252 254 265 276 270 279 284 276 278 284 289 295 302 315 310 314 312 300 270 261 259 269 273 276 270 295 250 255 250 185 153 251 243 309 351 67 44 358 141 83 101 109 138 158 162
248 255 260 263 273 276 273 277 279 284 288 292 296 305 314 320 320 338 322 305 268 263 260 259 265 297 295 293 274 260 225 255 287 320 13 354 2 335 292 257 181 154 155 164 167
253 255 256 260 268 274 277 280 279 279 283 285 292 294 306 299 274 350 334 331 307 281 248 244 249 283 296 265 276 285 266 275 279 296 5 333 329 329 317 259 279 195 182 163 169
257 262 266 269 267 268 271 274 278 281 285 288 285 283 292 264 254 273 309 303 313 358 264 241 261 273 251 272 285 279 276 270 287 293 296 266 301 289 298 299 299 187 173 169 175
259 264 270 274 275 276 277 280 278 276 277 281 287 279 277 250 268 274 282 275 247 312 265 251 262 270 283 279 289 296 303 298 306 310 305 264 238 245 270 281 288 198 174 180 183
254 264 270 276 279 286 288 287 286 279 274 271 282 277 266 249 227 210 221 254 250 238 257 227 288 327 286 322 306 289 303 297 293 279 280 289 303 239 245 256 265 265 208 191 194
251 262 267 271 293 309 324 307 297 285 274 270 270 273 258 236 244 239 229 242 244 230 247 243 282 311 281 291 316 330 316 280 273 255 256 254 262 257 261 253 245 249 249 208 197
244 254 267 280 292 298 303 317 324 312 279 256 251 257 274 254 246 253 241 247 253 249 247 264 283 271 289 265 298 233 240 270 276 251 248 213 243 251 247 253 259 255 243 224 223
242 254 268 286 304 308 307 300 321 315 304 229 215 262 257 250 261 274 251 236 235 240 243 240 236 234 229 188 225 199 242 248 254 254 263 259 253 250 232 241 254 278 228 222 221
250 258 267 284 301 323 328 322 346 279 261 226 209 220 270 279 286 228 173 224 236 239 193 177 175 218 217 217 233 267 261 254 252 251 259 255 273 248 222 226 241 250 236 236 244
255 260 270 282 298 337 16 25 327 320 294 262 252 247 250 264 294 242 209 221 203 218 205 243 221 223 231 234 240 240 247 257 270 266 279 281 276 266 260 225 220 229 234 237 236
248 253 261 268 286 304 339 326 321 336 279 270 246 239 236 241 237 242 226 226 249 213 208 214 234 226 227 225 243 250 246 255 253 258 251 273 284 275 270 239 239 233 239 236 243
249 246 246 257 283 10 18 10 311 291 294 278 194 270 224 205 272 238 227 235 210 241 237 232 260 246 245 226 226 248 251 260 265 269 262 217 273 272 250 267 246 245 245 248 254
244 239 229 212 206 183 110 91 303 338 354 288 145 144 166 161 328 338 218 234 247 222 183 222 225 232 242 239 227 238 245 253 266 267 276 268 249 263 229 249 273 251 244 243 243
239 236 228 211 227 170 162 127 315 47 253 301 121 144 134 206 281 353 168 228 280 278 284 270 282 291 276 272 261 262 266 272 271 258 254 252 236 271 247 249 254 268 261 258 251
236 229 224 213 216 222 185 154 43 198 293 213 161 167 183 172 218 203 224 183 191 200 251 285 275 283 278 284 276 259 261 254 265 251 249 250 236 253 211 235 240 249 262 265 269
231 227 222 218 197 201 204 167 211 245 255 323 317 322 278 218 214 206 202 216 212 219 240 265 297 229 232 240 260 263 249 249 242 245 267 283 245 241 260 257 255 251 259 269 271
227 231 232 217 205 208 206 211 192 209 255 342 324 312 301 316 306 245 210 214 214 194 207 227 251 261 271 279 247 257 249 252 271 253 243 244 255 283 276 256 255 256 253 258 270
225 240 244 218 212 218 230 224 214 269 295 327 321 326 328 329 331 336 303 287 216 226 205 243 270 257 270 284 281 263 254 251 233 244 251 249 252 244 256 260 293 281 281 269 269
210 236 260 208 199 209 230 217 232 259 288 327 318 322 312 317 318 318 306 308 308 273 278 270 341 290 324 244 257 279 279 262 255 206 231 247 239 231 253 259 276 278 292 308 301
189 240 211 193 202 188 229 203 244 257 257 276 272 261 270 283 297 296 292 283 314 337 328 47 156 286 282 284 265 261 261 276 272 261 244 241 254 248 250 240 254 274 302 302 300
216 239 264 191 221 229 251 233 239 252 254 256 262 269 297 291 287 265 277 292 301 311 318 107 56 322 313 327 339 317 344 344 318 259 228 248 258 266 258 269 273 274 283 338 298
223 222 237 222 237 234 235 240 244 233 249 251 260 277 290 287 279 276 280 292 299 288 297 177 188 232 257 263 281 289 289 298 303 288 292 245 259 271 268 253 258 275 265 301 312
216 235 231 226 240 238 245 256 240 240 236 237 245 245 256 269 271 280 294 297 303 306 283 355 285 284 284 273 268 276 293 290 275 275 289 299 264 264 265 263 260 269 275 287 269
219 207 243 260 267 227 235 241 249 245 248 248 248 249 245 253 262 278 280 281 277 296 309 48 301 308 284 285 287 280 272 283 277 268 264 271 275 244 271 288 281 254 263 258 262
231 234 251 244 242 248 242 239 249 248 250 247 255 258 261 267 261 269 277 280 280 283 282 198 201 312 276 294 300 271 244 251 272 283 279 284 290 287 275 264 270 277 263 279 279
Height
1519 1517 1519 1517 1522 1519 1518 1519 1520 1517 1517 1519 1516 1517 1515 1513 1512 1510 1511 1511 1512 1512 1513 1513 1514 1513 1515 1513 1511 1509 1520 1526 1514 1503 1495 1482 1483 1484 1487 1490 1490 1493 1497 1504 1512
1517 1516 1515 1518 1518 1519 1515 1518 1517 1515 1514 1516 1516 1514 1515 1511 1509 1507 1508 1508 1510 1511 1512 1513 1511 1514 1514 1510 1510 1508 1518 1512 1500 1497 1496 1487 1485 1487 1487 1491 1496 1495 1497 1502 1506
1513 1513 1511 1515 1515 1516 1514 1514 1513 1513 1514 1513 1514 1513 1513 1510 1509 1506 1505 1507 1507 1508 1509 1511 1511 1511 1509 1508 1504 1504 1510 1499 1496 1492 1491 1490 1488 1488 1489 1492 1492 1493 1495 1498 1502
1509 1508 1511 1512 1512 1511 1512 1511 1511 1510 1513 1513 1511 1511 1510 1513 1513 1505 1505 1505 1507 1506 1506 1509 1510 1511 1509 1508 1500 1504 1497 1496 1493 1491 1490 1491 1489 1491 1491 1491 1492 1492 1492 1497 1502
1507 1506 1508 1508 1510 1510 1508 1509 1509 1509 1510 1510 1510 1509 1509 1507 1506 1504 1506 1504 1507 1506 1506 1508 1509 1509 1510 1503 1500 1499 1495 1492 1491 1490 1489 1490 1490 1492 1489 1490 1490 1491 1492 1496 1499
1504 1504 1505 1506 1508 1507 1505 1506 1506 1506 1506 1510 1507 1505 1506 1504 1502 1505 1505 1502 1505 1504 1507 1507 1508 1507 1505 1503 1503 1496 1493 1491 1490 1488 1489 1488 1489 1491 1489 1490 1489 1494 1491 1492 1494
1502 1502 1504 1506 1507 1505 1503 1502 1504 1504 1504 1504 1503 1501 1501 1491 1497 1500 1499 1499 1502 1501 1505 1503 1504 1506 1502 1501 1498 1495 1498 1489 1488 1487 1488 1488 1491 1488 1486 1488 1489 1488 1491 1489 1491
1502 1502 1504 1506 1504 1503 1500 1501 1499 1501 1499 1498 1499 1500 1491 1490 1490 1492 1497 1496 1497 1499 1503 1501 1502 1503 1501 1501 1496 1499 1497 1504 1487 1486 1485 1489 1498 1480 1481 1483 1482 1484 1486 1486 1486
1502 1500 1503 1503 1502 1500 1499 1498 1499 1497 1497 1495 1497 1499 1487 1484 1484 1486 1490 1490 1494 1498 1500 1501 1501 1502 1500 1504 1509 1500 1512 1503 1493 1484 1484 1484 1486 1473 1475 1477 1476 1476 1476 1479 1481
1500 1501 1501 1502 1500 1499 1497 1498 1497 1496 1495 1493 1495 1498 1486 1480 1479 1481 1483 1487 1492 1495 1497 1499 1500 1500 1499 1507 1515 1507 1503 1495 1492 1482 1479 1480 1477 1470 1468 1468 1469 1470 1469 1473 1475
1498 1500 1500 1501 1499 1498 1497 1497 1499 1497 1491 1488 1486 1481 1479 1480 1478 1479 1481 1486 1490 1491 1493 1492 1501 1495 1491 1491 1492 1492 1492 1491 1481 1476 1478 1474 1472 1466 1459 1460 1462 1464 1465 1466 1468
1496 1497 1498 1500 1498 1497 1498 1498 1496 1498 1488 1481 1477 1478 1476 1481 1479 1478 1481 1485 1485 1485 1491 1494 1486 1476 1484 1490 1492 1490 1490 1483 1474 1472 1475 1468 1468 1464 1457 1451 1452 1456 1459 1459 1461
1496 1496 1497 1498 1497 1497 1499 1497 1496 1496 1492 1470 1465 1466 1469 1476 1476 1476 1479 1481 1480 1479 1482 1486 1467 1477 1483 1486 1488 1482 1483 1479 1478 1472 1467 1465 1467 1459 1451 1450 1447 1449 1452 1455 1456
1493 1496 1499 1496 1499 1498 1498 1499 1497 1496 1497 1470 1461 1461 1468 1472 1475 1470 1474 1479 1476 1474 1479 1477 1474 1477 1476 1475 1477 1480 1471 1469 1470 1476 1483 1466 1483 1451 1449 1446 1442 1443 1445 1448 1450
1493 1494 1495 1496 1496 1496 1499 1499 1498 1496 1519 1458 1459 1462 1463 1471 1468 1465 1467 1473 1471 1472 1474 1470 1467 1470 1468 1465 1465 1467 1465 1463 1465 1469 1474 1469 1481 1433 1444 1445 1444 1439 1438 1438 1440
1489 1491 1493 1495 1495 1497 1497 1495 1497 1507 1511 1458 1455 1460 1467 1470 1469 1468 1470 1472 1474 1475 1475 1469 1467 1468 1462 1461 1459 1460 1460 1459 1461 1466 1480 1457 1471 1441 1443 1443 1438 1435 1432 1431 1431
1486 1489 1491 1492 1492 1495 1495 1497 1505 1512 1474 1455 1459 1458 1460 1466 1468 1466 1468 1472 1478 1483 1482 1474 1468 1463 1466 1466 1459 1459 1464 1477 1486 1478 1469 1447 1461 1444 1426 1428 1430 1430 1427 1424 1424
1483 1485 1487 1488 1491 1493 1496 1500 1503 1489 1475 1458 1462 1454 1460 1458 1459 1458 1465 1469 1467 1470 1476 1478 1475 1461 1456 1459 1465 1459 1464 1479 1492 1498 1476 1448 1452 1437 1423 1422 1423 1422 1419 1416 1415
1481 1483 1482 1484 1489 1493 1497 1494 1489 1486 1473 1470 1462 1463 1461 1455 1458 1457 1459 1460 1458 1462 1474 1472 1463 1453 1453 1454 1456 1454 1463 1450 1465 1462 1473 1457 1449 1434 1417 1412 1416 1414 1412 1408 1407
1479 1481 1477 1482 1487 1492 1493 1486 1484 1477 1475 1476 1475 1467 1468 1466 1466 1465 1459 1452 1452 1454 1457 1460 1465 1446 1447 1452 1445 1449 1446 1461 1455 1472 1478 1465 1456 1443 1416 1416 1411 1411 1407 1403 1401
1478 1479 1474 1478 1486 1490 1483 1485 1483 1482 1481 1482 1475 1477 1475 1475 1470 1470 1465 1456 1452 1453 1452 1453 1464 1443 1451 1448 1452 1449 1450 1446 1443 1455 1463 1464 1437 1415 1410 1415 1412 1401 1404 1402 1399
1477 1478 1473 1476 1482 1477 1480 1480 1485 1482 1483 1482 1478 1478 1478 1478 1476 1474 1469 1463 1457 1460 1461 1460 1463 1471 1456 1447 1443 1441 1446 1449 1455 1459 1453 1448 1431 1404 1403 1403 1406 1405 1403 1395 1385
1474 1474 1473 1475 1474 1474 1474 1476 1481 1482 1482 1481 1477 1474 1475 1476 1477 1468 1463 1458 1459 1459 1462 1460 1475 1478 1453 1441 1437 1444 1449 1453 1446 1438 1452 1455 1437 1400 1407 1401 1394 1402 1400 1392 1382
1471 1472 1470 1470 1467 1470 1472 1472 1475 1476 1477 1477 1474 1476 1477 1474 1470 1459 1458 1459 1458 1455 1456 1458 1464 1474 1475 1461 1457 1455 1449 1451 1462 1459 1447 1439 1431 1404 1401 1400 1395 1388 1390 1390 1386
1469 1467 1466 1463 1466 1464 1468 1464 1465 1471 1471 1471 1468 1472 1475 1467 1463 1464 1464 1462 1458 1455 1452 1456 1459 1459 1456 1449 1450 1442 1441 1438 1439 1443 1446 1428 1429 1417 1393 1395 1395 1391 1383 1388 1382
1464 1465 1465 1461 1459 1462 1461 1460 1462 1462 1464 1463 1462 1464 1462 1456 1470 1465 1462 1459 1458 1455 1456 1458 1462 1460 1456 1448 1445 1442 1437 1437 1431 1431 1426 1419 1410 1409 1388 1398 1389 1381 1376 1381 1380
1460 1462 1462 1456 1457 1457 1453 1452 1451 1458 1455 1453 1456 1457 1454 1456 1458 1456 1456 1453 1451 1453 1453 1457 1460 1462 1453 1445 1441 1437 1431 1424 1416 1416 1414 1415 1408 1403 1384 1383 1380 1380 1374 1371 1370